{"data":{"norad_id":48474,"intl_designator":"2021-040AY","name":"STARLINK-2697","alt_names":[],"object_type":"PAYLOAD","status":"ACTIVE","operator":null,"country":"US","launch_date":"2021-05-09","launch_site_code":"AFETR","launch_vehicle":null,"mission":null,"orbit_class":"UNKNOWN","rcs_meters":null,"size_class":null,"mass_kg":null,"dimensions":null,"purposes":["comms"],"wikipedia_slug":null,"has_3d_model":false,"image_url":null,"decayed_at":null,"tle_current":{"epoch":"2026-09-19T23:40:18.871392Z","epoch_age_seconds":81621,"freshness":"FRESH","line1":"1 48474U 21040AY  26262.98632953  .00001947  00000+0  74467-4 0  9999","line2":"2 48474  53.1572   7.5264 0001072  68.2596 291.8519 15.31710525296251","mean_motion":15.31710525,"eccentricity":0.0001072,"inclination_deg":53.1572,"raan_deg":7.5264,"arg_perigee_deg":68.2596,"mean_anomaly_deg":291.8519,"bstar":7.4467e-5,"rev_number":29625,"period_min":94.012541958605,"perigee_km":469.97442467742,"apogee_km":471.44281717854,"semimajor_km":6848.845620928,"source":"CELESTRAK","updated_at":"2026-09-20T09:00:39.130224Z"}}}